Simultaneous Nadir Overpasses (SNOs) Predictions

Prediction of SNOs between NOAA-15 and METOP-C Satellite Orbit:

Table of predicted SNOs for the next 14.0 days since TLE Epoch: 12/7/2018
Index Date (NOAA-15) Time (NOAA-15) Lat,Lon (NOAA-15) SZA (NOAA-15 ) Date (METOP-C) Time (METOP-C) Lat,Lon (METOP-C) SZA (METOP-C ) Distance(km) Time Diff (sec)
1 12/17/2018 16:59:57 80.72, -42.76 105.47 12/17/2018 16:58:49 80.73, -42.91 105.45 3.21 68
2 12/17/2018 17:50:31 -80.73, 124.43 74.54 12/17/2018 17:49:30 -80.72, 124.31 74.57 2.20 61
3 12/17/2018 18:41:01 80.74, -68.42 105.46 12/17/2018 18:40:11 80.72, -68.38 105.43 1.92 50
4 12/17/2018 19:31:34 -80.73, 99.12 74.54 12/17/2018 19:30:51 -80.74, 99.19 74.54 1.48 43
5 12/17/2018 20:22:03 80.72, -93.39 105.47 12/17/2018 20:21:32 80.74, -93.51 105.46 2.60 31
6 12/17/2018 21:12:37 -80.73, 73.81 74.54 12/17/2018 21:12:13 -80.73, 73.71 74.56 1.76 24
7 12/17/2018 22:03:07 80.75,-119.06 105.46 12/17/2018 22:02:54 80.73,-118.98 105.44 2.38 13
8 12/17/2018 22:53:40 -80.73, 48.50 74.54 12/17/2018 22:53:34 -80.74, 48.59 74.53 1.79 6
9 12/17/2018 23:44:09 80.73,-144.02 105.47 12/17/2018 23:44:15 80.74,-144.11 105.47 1.99 6
10 12/18/2018 00:34:43 -80.74, 23.19 74.54 12/18/2018 00:34:56 -80.73, 23.11 74.55 1.33 13
11 12/18/2018 01:25:13 80.75,-169.69 105.46 12/18/2018 01:25:37 80.73,-169.58 105.46 2.91 24
12 12/18/2018 02:15:46 -80.74, -2.13 74.54 12/18/2018 02:16:17 -80.75, -2.01 74.52 2.17 31
13 12/18/2018 03:06:15 80.74, 165.34 105.47 12/18/2018 03:06:58 80.75, 165.29 105.49 1.41 43
14 12/18/2018 03:56:49 -80.74, -27.44 74.54 12/18/2018 03:57:39 -80.74, -27.48 74.53 0.95 50
15 12/18/2018 04:47:18 80.74, 140.02 105.47 12/18/2018 04:48:19 80.76, 140.17 105.52 3.29 61




NCC Satellite Simultaneous Nadir Overpasses (SNOs) Prediction Service
